User: anonymous   Login
Location: Unspecified
(0.0000°N, 0.0000°E)
Time: 14:43:39
(UTC+00:00)
Language:

COSMOS 2479 - Orbit

View from above orbital plane
View from above orbital plane
View from above satellite
View from above satellite

Ground track
Ground track

The orbit data is extracted from the following two-line orbital elements,

1 38101U 12012A   19047.88021150 -.00000075 +00000-0 +00000-0 0  9998
2 38101 002.8321 072.4359 0009485 245.1592 311.1588 01.00281209025226
Epoch (UTC): 16 February 2019 21:07:30
Eccentricity: 0.0009485
inclination: 2.8321°
perigee height: 35743 km
apogee height: 35823 km
right ascension of ascending node: 72.4359°
argument of perigee: 245.1592°
revolutions per day: 1.00281209
mean anomaly at epoch: 311.1588°
orbit number at epoch: 2522

The dashed part of the orbit path shows where the satellite is in the earth's shadow,  

DLR